CW9366 Weather Reports


Display with metric or nautical units.
time (UTC)temp
F
wind
direction
speed
MPH
gust
MPH
rain 1hr
in
rain 24hr
in
rain mn
in
humidity
%
barometer
mb
20260510214003 70 346 0.0 5.0 0.00 0.23 0.01 37 1018.2
20260510213503 70 0 0.0 0.0 0.00 0.23 0.01 35 1018.1
20260510213003 70 0 0.0 0.0 0.00 0.23 0.01 38 1018.1
20260510212503 70 0 0.0 0.0 0.00 0.23 0.01 34 1018.1
20260510212003 71 0 0.0 0.0 0.00 0.23 0.01 36 1018.1
20260510211503 70 0 0.0 0.0 0.00 0.23 0.01 38 1018.1
20260510211003 71 0 0.0 0.0 0.00 0.23 0.01 34 1018.2
20260510210503 71 0 0.0 0.0 0.00 0.23 0.01 34 1018.2
20260510210214 71 0 0.0 0.0 0.00 0.23 0.01 32 1018.3
20260510205503 72 0 0.0 0.0 0.00 0.23 0.01 36 1018.3
20260510205003 72 350 1.0 6.0 0.00 0.23 0.01 35 1018.3
20260510204503 71 350 1.0 6.0 0.00 0.23 0.01 37 1018.4
20260510204003 71 350 0.0 5.0 0.00 0.23 0.01 36 1018.3
20260510203503 71 0 0.0 0.0 0.00 0.23 0.01 36 1018.2
20260510203003 71 0 0.0 0.0 0.00 0.23 0.01 34 1018.1
20260510202503 71 0 0.0 0.0 0.00 0.23 0.01 40 1018.1
20260510202003 71 0 0.0 0.0 0.00 0.23 0.01 40 1018.2
20260510201503 71 0 0.0 0.0 0.00 0.23 0.01 39 1018.2
20260510201214 71 0 0.0 0.0 0.00 0.23 0.01 40 1018.2
20260510200503 71 327 0.0 1.0 0.00 0.23 0.01 37 1018.1
20260510200003 70 351 1.0 6.0 0.00 0.23 0.01 39 1018.2
20260510195503 70 348 1.0 6.0 0.00 0.23 0.01 35 1018.3
20260510195003 70 344 1.0 6.0 0.00 0.23 0.01 39 1018.2
20260510194503 70 0 0.0 0.0 0.00 0.23 0.01 41 1018.4
20260510194217 70 0 0.0 0.0 0.00 0.23 0.01 39 1018.3
20260510193503 70 0 0.0 0.0 0.00 0.23 0.01 39 1018.3
20260510193213 70 0 0.0 0.0 0.00 0.23 0.01 37 1018.4
20260510192716 70 0 0.0 0.0 0.00 0.23 0.01 40 1018.5
20260510192003 69 0 0.0 0.0 0.00 0.23 0.01 39 1018.5
20260510191503 69 0 0.0 0.0 0.00 0.23 0.01 41 1018.5
20260510191003 69 0 0.0 0.0 0.00 0.23 0.01 40 1018.5
20260510190713 68 0 0.0 0.0 0.00 0.23 0.01 37 1018.4
20260510190003 68 0 0.0 0.0 0.00 0.23 0.01 38 1018.5
20260510185503 68 0 0.0 0.0 0.00 0.23 0.01 42 1018.4
20260510185216 67 0 0.0 0.0 0.00 0.23 0.01 42 1018.3
20260510184714 66 0 0.0 0.0 0.00 0.23 0.01 45 1018.2
20260510184003 67 0 0.0 0.0 0.00 0.23 0.01 40 1018.3
20260510183503 67 0 0.0 0.0 0.00 0.23 0.01 41 1018.1
20260510183003 68 0 0.0 0.0 0.00 0.23 0.01 43 1018.3
20260510182503 67 360 0.0 7.0 0.00 0.23 0.01 41 1018.3
20260510182003 68 360 0.0 7.0 0.00 0.23 0.01 42 1018.2
20260510181503 68 0 0.0 3.0 0.00 0.23 0.01 39 1018.1
20260510181003 68 347 0.0 3.0 0.00 0.23 0.01 45 1018.2
20260510180503 68 309 0.0 4.0 0.00 0.23 0.01 46 1018.2
20260510180003 68 336 0.0 6.0 0.00 0.23 0.01 41 1018.2
20260510175503 67 345 0.0 6.0 0.00 0.23 0.01 39 1018.2
20260510175003 67 348 0.0 6.0 0.00 0.23 0.01 40 1018.3
20260510174503 68 350 1.0 7.0 0.00 0.23 0.01 39 1018.4
20260510174003 68 351 1.0 9.0 0.00 0.23 0.01 39 1018.5
20260510173503 68 357 1.0 9.0 0.00 0.23 0.01 40 1018.4
20260510173003 68 20 0.0 9.0 0.00 0.23 0.01 46 1018.5
20260510172503 67 346 0.0 4.0 0.00 0.23 0.01 47 1018.4
20260510172003 66 345 0.0 4.0 0.00 0.23 0.01 43 1018.4
20260510171503 66 355 0.0 6.0 0.00 0.23 0.01 45 1018.7
20260510171003 66 358 0.0 6.0 0.00 0.23 0.01 46 1018.6
20260510170714 66 0 0.0 0.0 0.00 0.23 0.01 49 1018.5
20260510170003 66 81 0.0 5.0 0.00 0.23 0.01 46 1018.7
20260510165503 66 81 0.0 5.0 0.00 0.23 0.01 48 1018.6
20260510165213 66 81 0.0 5.0 0.00 0.23 0.01 44 1018.7
20260510164716 67 0 0.0 0.0 0.00 0.23 0.01 59 1018.6
20260510164003 65 0 0.0 0.0 0.00 0.23 0.01 60 1018.7
20260510163503 64 0 0.0 0.0 0.00 0.23 0.01 62 1018.7
20260510163003 62 0 0.0 0.0 0.00 0.23 0.01 62 1018.7
20260510162503 62 0 0.0 0.0 0.00 0.23 0.01 64 1018.7
20260510162003 62 0 0.0 0.0 0.00 0.23 0.01 65 1018.7
20260510161503 61 0 0.0 0.0 0.00 0.23 0.01 65 1018.7
20260510161003 61 0 0.0 0.0 0.00 0.23 0.01 64 1018.7
20260510160714 61 0 0.0 0.0 0.00 0.23 0.01 65 1018.7
20260510160003 62 0 0.0 0.0 0.00 0.23 0.01 65 1018.8
20260510155715 62 0 0.0 0.0 0.00 0.23 0.01 64 1018.8
20260510155003 62 0 0.0 0.0 0.00 0.23 0.01 61 1018.8
20260510154503 63 0 0.0 0.0 0.00 0.23 0.01 66 1018.7
20260510154003 62 0 0.0 0.0 0.00 0.23 0.01 71 1018.8
20260510153503 60 0 0.0 0.0 0.00 0.23 0.01 70 1018.8
20260510153004 60 0 0.0 0.0 0.00 0.23 0.01 70 1018.8
20260510152503 59 0 0.0 0.0 0.00 0.23 0.01 71 1018.7
20260510152003 59 0 0.0 0.0 0.00 0.23 0.01 72 1018.7
20260510151503 59 0 0.0 0.0 0.00 0.23 0.01 73 1018.6
20260510151003 58 0 0.0 0.0 0.00 0.23 0.01 74 1018.5
20260510150503 58 0 0.0 0.0 0.00 0.23 0.01 74 1018.4
20260510150003 58 0 0.0 0.0 0.00 0.23 0.01 74 1018.4
20260510145503 58 0 0.0 0.0 0.00 0.23 0.01 75 1018.3
20260510145003 57 0 0.0 0.0 0.00 0.23 0.01 74 1018.3
20260510144503 57 0 0.0 0.0 0.00 0.23 0.01 73 1018.4
20260510144003 58 0 0.0 0.0 0.00 0.23 0.01 73 1018.4
20260510143713 58 0 0.0 0.0 0.00 0.23 0.01 72 1018.2
20260510143003 57 0 0.0 0.0 0.00 0.23 0.01 74 1017.9
20260510142503 57 0 0.0 0.0 0.00 0.23 0.01 74 1017.9
20260510142003 57 0 0.0 0.0 0.00 0.23 0.01 75 1017.9
20260510141715 57 0 0.0 0.0 0.00 0.23 0.01 75 1017.9
20260510141003 57 0 0.0 0.0 0.00 0.23 0.01 77 1017.8
20260510140715 57 0 0.0 0.0 0.00 0.23 0.01 78 1017.8
20260510140003 57 0 0.0 0.0 0.00 0.23 0.01 80 1017.6
20260510135503 56 0 0.0 0.0 0.00 0.23 0.01 81 1017.4
20260510135003 56 0 0.0 0.0 0.00 0.23 0.01 81 1017.3
20260510134712 56 0 0.0 0.0 0.00 0.23 0.01 82 1017.4
20260510134003 56 0 0.0 0.0 0.00 0.23 0.01 82 1017.5
20260510133503 56 0 0.0 0.0 0.00 0.23 0.01 83 1017.4
20260510133003 56 0 0.0 0.0 0.00 0.23 0.01 84 1017.3
20260510132503 55 0 0.0 0.0 0.00 0.23 0.01 85 1017.4
20260510132212 55 0 0.0 0.0 0.00 0.23 0.01 86 1017.4
20260510131503 54 0 0.0 0.0 0.00 0.23 0.01 89 1017.4
20260510131003 55 0 0.0 0.0 0.00 0.23 0.01 91 1017.2
20260510130503 54 0 0.0 0.0 0.00 0.23 0.01 93 1017.1
20260510130003 54 0 0.0 0.0 0.00 0.23 0.01 93 1016.9
20260510125503 54 0 0.0 0.0 0.00 0.23 0.01 94 1016.9
20260510125003 54 0 0.0 0.0 0.00 0.23 0.01 95 1017.0
20260510124713 53 0 0.0 0.0 0.00 0.23 0.01 95 1016.8
20260510124003 53 0 0.0 0.0 0.00 0.23 0.01 95 1016.7
20260510123714 53 0 0.0 0.0 0.00 0.23 0.01 95 1016.7
20260510123003 53 0 0.0 0.0 0.00 0.23 0.01 95 1016.5
20260510122503 52 0 0.0 0.0 0.00 0.23 0.01 96 1016.4
20260510122003 52 0 0.0 0.0 0.00 0.23 0.01 96 1016.3
20260510121503 52 0 0.0 0.0 0.00 0.23 0.01 96 1016.1
20260510121214 52 0 0.0 0.0 0.00 0.23 0.01 96 1016.1
20260510120717 52 0 0.0 0.0 0.00 0.23 0.01 96 1016.1
20260510120003 52 0 0.0 0.0 0.00 0.23 0.01 96 1016.1
20260510115503 52 0 0.0 0.0 0.00 0.23 0.01 96 1016.0
20260510115003 52 0 0.0 0.0 0.00 0.23 0.01 96 1015.8
20260510114503 51 0 0.0 0.0 0.00 0.23 0.01 96 1015.7
20260510114217 51 0 0.0 0.0 0.00 0.23 0.01 96 1015.6
20260510113503 51 0 0.0 0.0 0.00 0.23 0.01 96 1015.4
20260510113212 51 0 0.0 0.0 0.00 0.23 0.01 96 1015.4
20260510112503 51 0 0.0 0.0 0.00 0.23 0.01 96 1015.3
20260510112003 51 0 0.0 0.0 0.00 0.23 0.01 96 1015.2
20260510111503 51 0 0.0 0.0 0.00 0.23 0.01 96 1015.1
20260510111215 51 0 0.0 0.0 0.00 0.23 0.01 96 1015.0
20260510110503 51 0 0.0 0.0 0.00 0.23 0.01 96 1015.0
20260510110003 51 0 0.0 0.0 0.00 0.23 0.01 96 1014.8
20260510105503 52 0 0.0 0.0 0.00 0.23 0.01 96 1014.7
20260510105003 52 0 0.0 0.0 0.00 0.23 0.01 96 1014.5
20260510104503 52 0 0.0 0.0 0.00 0.23 0.01 96 1014.5
20260510104212 52 0 0.0 0.0 0.01 0.23 0.01 96 1014.5
20260510103503 52 0 0.0 0.0 0.01 0.23 0.01 96 1014.2
20260510103213 52 0 0.0 0.0 0.01 0.23 0.01 96 1014.3
20260510102716 52 0 0.0 0.0 0.01 0.23 0.01 96 1014.3
20260510102214 52 0 0.0 0.0 0.01 0.23 0.01 96 1014.3
20260510101503 52 0 0.0 0.0 0.01 0.23 0.01 96 1014.0
20260510101003 52 0 0.0 0.0 0.01 0.23 0.01 96 1013.9
20260510100503 53 0 0.0 0.0 0.01 0.23 0.01 96 1013.7
20260510100003 53 0 0.0 0.0 0.01 0.23 0.01 96 1013.6
20260510095503 53 0 0.0 0.0 0.01 0.23 0.01 96 1013.6
20260510095217 53 0 0.0 0.0 0.01 0.23 0.01 96 1013.6
20260510094503 54 0 0.0 0.0 0.01 0.23 0.01 96 1013.6
20260510094003 54 0 0.0 0.0 0.00 0.22 0.00 96 1013.7
20260510093503 54 0 0.0 0.0 0.00 0.22 0.00 96 1013.7
20260510093003 54 0 0.0 0.0 0.00 0.22 0.00 96 1013.7
20260510092503 54 0 0.0 0.0 0.00 0.22 0.00 96 1013.7
20260510092003 54 0 0.0 0.0 0.00 0.22 0.00 96 1013.6
20260510091503 55 0 0.0 0.0 0.00 0.22 0.00 96 1013.5
20260510091003 55 0 0.0 0.0 0.00 0.22 0.00 96 1013.5
20260510090503 55 0 0.0 0.0 0.00 0.22 0.00 96 1013.3
20260510090003 55 0 0.0 0.0 0.00 0.22 0.00 96 1013.3
20260510085503 55 0 0.0 0.0 0.00 0.22 0.00 96 1013.1
20260510085003 55 0 0.0 0.0 0.00 0.22 0.00 95 1013.0
20260510084503 55 0 0.0 0.0 0.00 0.22 0.00 96 1012.8
20260510084003 56 0 0.0 0.0 0.00 0.22 0.00 96 1012.7
20260510083503 56 0 0.0 0.0 0.00 0.22 0.00 95 1012.5
20260510083003 56 0 0.0 0.0 0.00 0.22 0.00 95 1012.4
20260510082503 56 0 0.0 0.0 0.00 0.22 0.00 95 1012.4
20260510082003 56 0 0.0 0.0 0.00 0.22 0.00 95 1012.3
20260510081503 56 0 0.0 0.0 0.00 0.22 0.00 95 1012.0
20260510081003 56 0 0.0 0.0 0.00 0.22 0.00 95 1012.0
20260510080503 57 0 0.0 0.0 0.00 0.22 0.00 95 1012.0
20260510080004 57 0 0.0 0.0 0.00 0.22 0.00 95 1011.9
20260510075503 57 0 0.0 0.0 0.00 0.22 0.00 95 1011.8
20260510075003 57 0 0.0 0.0 0.00 0.22 0.00 95 1011.7
20260510074503 58 0 0.0 0.0 0.00 0.22 0.00 95 1011.7
20260510074003 58 0 0.0 0.0 0.00 0.23 0.00 95 1011.8
20260510073503 58 0 0.0 0.0 0.00 0.23 0.00 95 1011.8
20260510073003 58 0 0.0 0.0 0.00 0.23 0.00 95 1011.9
20260510072503 58 0 0.0 0.0 0.00 0.23 0.00 95 1011.9
20260510072003 58 0 0.0 0.0 0.00 0.23 0.00 95 1011.9
20260510071503 58 0 0.0 0.0 0.00 0.23 0.00 95 1011.8
20260510071003 58 0 0.0 0.0 0.00 0.23 0.00 95 1011.7
20260510070503 58 0 0.0 0.0 0.00 0.23 0.00 95 1011.7
20260510070003 58 0 0.0 0.0 0.00 0.23 0.00 95 1011.7
20260510065503 58 0 0.0 0.0 0.00 0.23 0.00 95 1011.7
20260510065003 58 0 0.0 0.0 0.00 0.23 0.00 95 1011.7
20260510064503 58 0 0.0 0.0 0.00 0.23 0.00 95 1011.7
20260510064003 58 0 0.0 0.0 0.00 0.23 0.00 95 1011.7
20260510063503 59 0 0.0 0.0 0.00 0.23 0.00 95 1011.7
20260510063003 59 0 0.0 0.0 0.00 0.23 0.00 95 1011.7
20260510062503 59 0 0.0 0.0 0.00 0.23 0.00 95 1011.7
20260510062217 59 0 0.0 0.0 0.00 0.23 0.00 95 1011.7
20260510061503 59 0 0.0 0.0 0.00 0.23 0.00 95 1011.7
20260510061003 59 0 0.0 0.0 0.00 0.23 0.00 95 1011.7
20260510060503 59 0 0.0 0.0 0.00 0.23 0.00 94 1011.7
20260510060003 59 0 0.0 0.0 0.00 0.23 0.00 94 1011.7
20260510055503 59 0 0.0 0.0 0.00 0.23 0.00 94 1011.7
20260510055214 59 0 0.0 0.0 0.00 0.23 0.00 94 1011.7
20260510054503 60 0 0.0 0.0 0.00 0.23 0.00 94 1011.4
20260510054004 60 0 0.0 0.0 0.00 0.23 0.00 94 1011.4
20260510053503 60 0 0.0 0.0 0.00 0.23 0.00 94 1011.5
20260510053003 60 0 0.0 0.0 0.00 0.23 0.00 94 1011.3
20260510052503 60 0 0.0 0.0 0.00 0.23 0.00 94 1011.2
20260510052003 60 0 0.0 0.0 0.00 0.23 0.00 94 1010.9
20260510051503 60 0 0.0 0.0 0.00 0.23 0.00 94 1010.7
20260510051213 60 0 0.0 0.0 0.00 0.23 0.00 94 1010.8
20260510050503 60 0 0.0 0.0 0.00 0.23 0.00 94 1011.0
20260510050005 60 0 0.0 0.0 0.01 0.23 0.00 94 1011.0
20260510045503 60 0 0.0 0.0 0.01 0.23 0.23 94 1011.1
20260510045004 60 0 0.0 0.0 0.02 0.23 0.23 94 1010.8
20260510044503 60 0 0.0 0.0 0.03 0.23 0.23 94 1010.7
20260510044003 60 0 0.0 0.0 0.05 0.23 0.23 93 1010.7
20260510043503 60 0 0.0 0.0 0.06 0.23 0.23 93 1010.7
20260510043003 60 0 0.0 0.0 0.06 0.23 0.23 93 1010.6
20260510042503 60 0 0.0 0.0 0.08 0.23 0.23 93 1010.5
20260510042003 60 0 0.0 0.0 0.08 0.23 0.23 93 1010.1
20260510041504 60 0 0.0 0.0 0.09 0.23 0.23 93 1010.2
20260510041003 61 0 0.0 0.0 0.11 0.23 0.23 93 1010.1
20260510040503 61 0 0.0 0.0 0.13 0.23 0.23 93 1010.2
20260510040004 61 0 0.0 0.0 0.14 0.22 0.22 93 1010.4
20260510035503 61 0 0.0 0.0 0.17 0.22 0.22 92 1010.6
20260510035003 61 0 0.0 0.0 0.18 0.21 0.21 92 1010.4
20260510034503 61 0 0.0 0.0 0.18 0.20 0.20 92 1010.9
20260510034003 61 100 1.0 6.0 0.17 0.18 0.19 92 1010.7
20260510033503 61 89 1.0 6.0 0.16 0.17 0.17 92 1009.8
20260510033003 61 351 1.0 9.0 0.16 0.17 0.17 91 1010.4
20260510032503 61 355 1.0 9.0 0.14 0.15 0.15 91 1011.0
20260510032003 61 358 2.0 8.0 0.14 0.15 0.15 91 1010.9
20260510031503 62 349 3.0 8.0 0.13 0.14 0.14 90 1011.2
20260510031215 62 345 3.0 9.0 0.12 0.13 0.13 90 1011.3
20260510030503 62 331 4.0 9.0 0.09 0.10 0.10 89 1011.6
20260510030003 62 319 5.0 14.0 0.07 0.09 0.08 87 1011.4
20260510025503 63 321 6.0 27.0 0.04 0.07 0.05 86 1011.2
20260510025004 64 327 9.0 27.0 0.02 0.05 0.03 82 1010.8
20260510024004 67 318 2.0 19.0 0.00 0.05 0.01 74 1009.9
20260510023503 66 0 0.0 0.0 0.00 0.06 0.01 74 1008.1
20260510023003 66 0 0.0 0.0 0.00 0.07 0.01 76 1007.9
20260510022503 66 0 0.0 0.0 0.00 0.08 0.01 76 1007.6
20260510022003 66 0 0.0 0.0 0.00 0.08 0.01 76 1007.5
20260510021503 65 0 0.0 0.0 0.00 0.10 0.01 76 1007.5
20260510021003 65 0 0.0 0.0 0.00 0.12 0.01 76 1007.4
20260510020503 65 0 0.0 0.0 0.00 0.15 0.01 76 1007.3
20260510020004 66 0 0.0 0.0 0.00 0.17 0.01 76 1007.2
20260510015503 66 0 0.0 0.0 0.00 0.19 0.01 75 1007.1
20260510015003 66 0 0.0 0.0 0.00 0.22 0.01 73 1007.1
20260510014713 66 0 0.0 0.0 0.00 0.24 0.01 73 1007.0
20260510014003 66 0 0.0 0.0 0.00 0.27 0.01 73 1006.9
20260510013503 67 0 0.0 0.0 0.00 0.29 0.01 72 1006.8
20260510013003 67 0 0.0 0.0 0.00 0.30 0.01 70 1006.7
20260510012504 68 0 0.0 0.0 0.00 0.32 0.01 69 1006.6
20260510012003 68 0 0.0 0.0 0.00 0.34 0.01 67 1006.6
20260510011503 69 0 0.0 0.0 0.00 0.35 0.01 64 1006.7
20260510011005 69 0 0.0 0.0 0.00 0.35 0.01 63 1006.7
20260510010503 70 0 0.0 0.0 0.00 0.35 0.01 62 1006.7
20260510010004 71 0 0.0 0.0 0.00 0.35 0.01 61 1006.7
20260510005503 72 0 0.0 0.0 0.00 0.35 0.01 60 1006.7
20260510005003 72 0 0.0 0.0 0.00 0.35 0.01 58 1006.7
20260510004503 73 0 0.0 0.0 0.00 0.35 0.01 55 1006.7
20260510004003 74 0 0.0 0.0 0.00 0.35 0.01 53 1006.5
20260510003714 75 0 0.0 0.0 0.00 0.35 0.01 52 1006.6
20260510003004 76 0 0.0 0.0 0.00 0.36 0.01 51 1006.4
20260510002503 77 0 0.0 0.0 0.00 0.36 0.01 48 1006.4
20260510002003 77 0 0.0 0.0 0.00 0.36 0.01 46 1006.3
20260510001504 78 0 0.0 0.0 0.00 0.36 0.01 47 1006.3
20260510001003 79 0 0.0 0.0 0.00 0.37 0.01 44 1006.3
20260510000504 80 0 0.0 0.0 0.00 0.37 0.01 43 1006.3
20260510000004 80 0 0.0 0.0 0.00 0.37 0.01 40 1006.3
20260509235503 81 0 0.0 0.0 0.00 0.37 0.01 40 1006.3
20260509235216 81 0 0.0 0.0 0.00 0.38 0.01 41 1006.3
20260509234503 81 0 0.0 0.0 0.00 0.38 0.01 38 1006.2
20260509234217 81 0 0.0 0.0 0.00 0.38 0.01 38 1006.3
20260509233503 82 0 0.0 0.0 0.00 0.38 0.01 41 1006.3
20260509233213 82 0 0.0 0.0 0.00 0.38 0.01 38 1006.2
20260509232716 81 0 0.0 0.0 0.00 0.38 0.01 39 1006.2
20260509232003 81 0 0.0 0.0 0.00 0.38 0.01 38 1006.2
20260509231717 81 0 0.0 0.0 0.00 0.38 0.01 40 1006.2
20260509231003 81 0 0.0 0.0 0.00 0.38 0.01 38 1006.2
20260509230504 81 0 0.0 0.0 0.00 0.38 0.01 38 1006.1
20260509230004 82 0 0.0 0.0 0.00 0.38 0.01 37 1006.1
20260509225503 82 0 0.0 0.0 0.00 0.38 0.01 38 1006.1
20260509225003 82 0 0.0 0.0 0.00 0.38 0.01 38 1006.1
20260509224503 82 0 0.0 0.0 0.00 0.38 0.01 36 1006.1
20260509224004 82 0 0.0 0.0 0.00 0.38 0.01 38 1006.0
20260509223503 82 0 0.0 0.0 0.00 0.38 0.01 35 1006.1
20260509223003 82 11 0.0 1.0 0.00 0.38 0.01 37 1006.1
20260509222503 82 256 1.0 7.0 0.00 0.38 0.01 38 1006.2
20260509222004 82 256 1.0 7.0 0.00 0.38 0.01 34 1006.1
20260509221503 83 292 0.0 4.0 0.00 0.38 0.01 36 1006.2
20260509221003 82 292 0.0 4.0 0.00 0.38 0.01 38 1006.2
20260509220504 82 310 0.0 4.0 0.00 0.38 0.01 37 1006.1
20260509220003 82 305 1.0 4.0 0.00 0.38 0.01 38 1006.2
20260509215503 82 263 0.0 4.0 0.00 0.38 0.01 36 1006.3
20260509215003 82 270 0.0 6.0 0.00 0.38 0.01 39 1006.3
20260509214503 82 270 0.0 6.0 0.00 0.38 0.01 36 1006.4